Simultaneous Nadir Overpasses (SNOs) Predictions

Prediction of SNOs between NOAA-19 and METOP-C Satellite Orbit:

Table of predicted SNOs for the next 14.0 days since TLE Epoch: 10/24/2020
Index Date (NOAA-19) Time (NOAA-19) Lat,Lon (NOAA-19) SZA (NOAA-19 ) Date (METOP-C) Time (METOP-C) Lat,Lon (METOP-C) SZA (METOP-C ) Distance(km) Time Diff (sec)
1 10/27/2020 04:37:25 -80.23, -44.67 85.73 10/27/2020 04:38:29 -80.21, -44.60 85.72 2.67 64
2 10/27/2020 05:28:23 80.22, 122.79 94.30 10/27/2020 05:29:08 80.23, 122.94 94.33 3.10 45
3 10/27/2020 06:19:25 -80.22, -70.01 85.70 10/27/2020 06:19:51 -80.20, -70.05 85.71 2.40 26
4 10/27/2020 07:10:23 80.21, 97.45 94.32 10/27/2020 07:10:30 80.22, 97.49 94.34 1.37 7
5 10/27/2020 08:01:25 -80.21, -95.34 85.67 10/27/2020 08:01:12 -80.22, -95.19 85.66 2.91 13
6 10/27/2020 08:52:23 80.20, 72.11 94.35 10/27/2020 08:51:52 80.21, 72.04 94.35 1.82 31
7 10/27/2020 09:43:25 -80.20,-120.68 85.64 10/27/2020 09:42:34 -80.21,-120.65 85.65 1.08 51
